Regional Weather Roundup
Issued by NWS Jackson, KY

Home | Current Version | Previous Version | Text Only | Print | Product List | Glossary On
Versions: 1 2 3 4 5 6 7 8 9 10 11 12 13 14 15 16 17 18 19 20 21 22 23 24 25 26 27 28 29 30 31 32 33 34 35 36 37 38 39 40 41 42 43 44 45 46 47 48 49 50
000
ASUS43 KJKL 290510
RWRJKL

EAST KENTUCKY HOURLY WEATHER ROUNDUP
NATIONAL WEATHER SERVICE JACKSON KY
100 AM EDT SUN MAR 29 2015

NOTE: "FAIR" INDICATES FEW OR NO CLOUDS BELOW 12,000 FEET WITH
NO SIGNIFICANT WEATHER AND/OR OBSTRUCTIONS TO VISIBILITY.

* THESE REPORTS ARE NOT UNDER NWS QUALITY CONTROL AND MAY NOT
  REPORT WEATHER SUCH AS PRECIPITATION AND FOG.

KYZ079-080-083-085-087-088-110-112-115-119-120-290600
...EASTERN KENTUCKY...

CITY           SKY/WX    TMP DP  RH WIND       PRES   REMARKS
JACKSON        CLEAR     27  11  51 CALM      30.33R
LONDON         CLEAR     28  16  60 CALM      30.33R
SOMERSET*      CLEAR     27  19  74 CALM      30.36S
MONTICELLO*    CLEAR     24  19  81 CALM      30.37S
MIDDLESBORO*   CLEAR     27  20  74 CALM      30.34R
HAZARD APT*    CLEAR     28  14  54 CALM      30.34R
BLACK MTN*       N/A     16  12  86 N5          N/A  WCI   9
PIKEVILLE APT* CLEAR     27   9  46 N5        30.32R WCI  21
BIG SANDY*     CLEAR     28   9  44 CALM      30.34R
MOREHEAD APT*  CLEAR     27  10  50 CALM      30.37R
$$

KYZ035-036-041-042-044-050-067-078-099-290600
...CENTRAL KENTUCKY...

CITY           SKY/WX    TMP DP  RH WIND       PRES   REMARKS
MT STERLING*   CLEAR     25  19  80 CALM      30.36S
FLEMING/MASON* CLEAR     23  12  63 CALM      30.37S
DANVILLE*      CLEAR     27  19  74 CALM      30.36R
RICHMOND*      CLEAR     27  16  63 E3        30.34S
LEXINGTON      CLEAR     28  13  53 E5        30.35R WCI  23
FRANKFORT      CLEAR     24  16  71 CALM      30.35R
$$

KYZ091>093-OHZ055-061-077-WVZ005-015-034-035-042-290600
...SOUTHERN OHIO/WEST VIRGINIA...

CITY           SKY/WX    TMP DP  RH WIND       PRES   REMARKS
COVINGTON      CLEAR     27  15  61 CALM      30.35S
COLUMBUS       CLEAR     23  13  65 CALM      30.35S
DAYTON         CLEAR     27  14  58 S3        30.34S
WILMINGTON     CLEAR     24  16  71 CALM      30.34F
HUNTINGTON     CLEAR     27  11  51 N3        30.36R
CHARLESTON     CLEAR     26   9  48 CALM      30.34R
PINEVILLE*     CLEAR     24  17  77 MISG      30.33S
BECKLEY        CLEAR     21   5  50 NW6       30.23R WCI  13
BLUEFIELD      CLEAR     22   5  48 CALM      30.21S
$$

VAZ002-007-008-TNZ017-027-036-066-071-290600
...SOUTHWEST VIRGINIA/EAST TENNESSEE...

CITY           SKY/WX    TMP DP  RH WIND       PRES   REMARKS
WISE*          CLEAR     27  10  50 NW5       30.25R WCI  21
JONESVILLE*    CLEAR     27  18  69 CALM      30.34R
ABINGDON*      CLEAR     30   8  40 CALM      30.26S
BRISTOL        CLEAR     28  12  51 N5        30.29R WCI  23
KNOXVILLE      CLEAR     33  17  51 CALM      30.32R
OAK RIDGE      CLEAR     34  15  46 CALM      30.34R
CROSSVILLE     CLEAR     30  13  49 N3        30.29S
NASHVILLE      CLEAR     32  18  56 CALM      30.34S
$$

...KEY TO REMARKS...
VSB - VISIBILITY IN MILES
WCI - WIND CHILL INDEX
HX  - HEAT INDEX

$$



USA.gov is the U.S. government's official web portal to all federal, state and local government web resources and services.